| time (UTC) | temp C | wind direction | speed KPH | gust KPH | rain 1hr cm | rain 24hr cm | rain mn cm | humidity % | barometer mb |
| 20260506092503 | 6 | 270 | 4.8 | 19.3 | 0.00 | 0.00 | 0.00 | 54 | 1001.7 |
| 20260506092003 | 6 | 305 | 11.3 | 25.7 | 0.00 | 0.00 | 0.00 | 53 | 1001.8 |
| 20260506091503 | 6 | 260 | 0.0 | 12.9 | 0.00 | 0.00 | 0.00 | 55 | 1001.7 |
| 20260506091003 | 5 | 281 | 0.0 | 0.0 | 0.00 | 0.00 | 0.00 | 56 | 1001.7 |
| 20260506090504 | 5 | 277 | 0.0 | 0.0 | 0.00 | 0.00 | 0.00 | 57 | 1001.7 |
| 20260506090003 | 5 | 220 | 0.0 | 16.1 | 0.00 | 0.00 | 0.00 | 58 | 1001.6 |
| 20260506085503 | 5 | 226 | 1.6 | 12.9 | 0.00 | 0.00 | 0.00 | 57 | 1001.6 |
| 20260506084004 | 5 | 281 | 0.0 | 0.0 | 0.00 | 0.00 | 0.00 | 56 | 1001.5 |
| 20260506083503 | 5 | 331 | 0.0 | 9.7 | 0.00 | 0.00 | 0.00 | 57 | 1001.4 |
| 20260506083003 | 5 | 305 | 9.7 | 16.1 | 0.00 | 0.00 | 0.00 | 56 | 1001.5 |
| 20260506082003 | 5 | 329 | 0.0 | 0.0 | 0.00 | 0.00 | 0.00 | 58 | 1001.4 |
| 20260506081504 | 5 | 269 | 0.0 | 4.8 | 0.00 | 0.00 | 0.00 | 60 | 1001.4 |
| 20260506081003 | 5 | 280 | 8.0 | 16.1 | 0.00 | 0.00 | 0.00 | 59 | 1001.4 |
| 20260506080503 | 5 | 312 | 0.0 | 19.3 | 0.00 | 0.00 | 0.00 | 60 | 1001.2 |
| 20260506073503 | 3 | 314 | 9.7 | 16.1 | 0.00 | 0.00 | 0.00 | 65 | 1001.0 |
| 20260506073003 | 3 | 282 | 0.0 | 1.6 | 0.00 | 0.00 | 0.00 | 66 | 1000.9 |
| 20260506072503 | 3 | 306 | 1.6 | 16.1 | 0.00 | 0.00 | 0.00 | 68 | 1000.8 |
| 20260506071504 | 3 | 270 | 4.8 | 12.9 | 0.00 | 0.00 | 0.00 | 68 | 1000.7 |
| 20260506071004 | 3 | 309 | 0.0 | 0.0 | 0.00 | 0.00 | 0.00 | 68 | 1000.7 |
| 20260506070503 | 3 | 308 | 9.7 | 20.9 | 0.00 | 0.00 | 0.00 | 67 | 1000.7 |
| 20260506062503 | 3 | 287 | 9.7 | 14.5 | 0.00 | 0.00 | 0.00 | 68 | 1000.3 |
| 20260506062003 | 3 | 277 | 1.6 | 12.9 | 0.00 | 0.00 | 0.00 | 69 | 1000.2 |
| 20260506061503 | 3 | 264 | 8.0 | 19.3 | 0.00 | 0.00 | 0.00 | 70 | 1000.1 |
| 20260506051003 | 1 | 311 | 6.4 | 12.9 | 0.00 | 0.00 | 0.00 | 75 | 999.8 |
| 20260506050503 | 1 | 284 | 8.0 | 19.3 | 0.00 | 0.00 | 0.00 | 75 | 999.8 |
| 20260506045003 | 1 | 237 | 3.2 | 14.5 | 0.00 | 0.00 | 0.00 | 76 | 999.7 |
| 20260506044504 | 1 | 293 | 3.2 | 12.9 | 0.00 | 0.00 | 0.00 | 76 | 999.6 |
| 20260506044004 | 1 | 273 | 4.8 | 16.1 | 0.00 | 0.00 | 0.00 | 77 | 999.5 |
| 20260506043503 | 1 | 286 | 1.6 | 8.0 | 0.00 | 0.00 | 0.00 | 78 | 999.5 |
| 20260506043004 | 0 | 237 | 0.0 | 0.0 | 0.00 | 0.00 | 0.00 | 78 | 999.5 |
| 20260506042503 | 0 | 267 | 0.0 | 0.0 | 0.00 | 0.00 | 0.00 | 78 | 999.5 |
| 20260506042003 | 0 | 288 | 0.0 | 0.0 | 0.00 | 0.00 | 0.00 | 78 | 999.5 |
| 20260506041503 | 0 | 288 | 0.0 | 0.0 | 0.00 | 0.00 | 0.00 | 79 | 999.4 |
| 20260506041003 | 0 | 305 | 0.0 | 0.0 | 0.00 | 0.00 | 0.00 | 79 | 999.4 |
| 20260506040503 | 0 | 262 | 0.0 | 0.0 | 0.00 | 0.00 | 0.00 | 79 | 999.4 |
| 20260506040004 | 0 | 243 | 0.0 | 4.8 | 0.00 | 0.00 | 0.00 | 80 | 999.4 |
| 20260506035003 | 0 | 281 | 0.0 | 4.8 | 0.00 | 0.00 | 0.00 | 80 | 999.3 |
| 20260506034503 | 0 | 289 | 1.6 | 11.3 | 0.00 | 0.00 | 0.00 | 80 | 999.2 |
| 20260506034003 | 0 | 268 | 1.6 | 4.8 | 0.00 | 0.00 | 0.00 | 81 | 999.2 |
| 20260506033503 | 0 | 270 | 0.0 | 8.0 | 0.00 | 0.00 | 0.00 | 81 | 999.3 |
| 20260506033004 | 0 | 258 | 0.0 | 8.0 | 0.00 | 0.00 | 0.00 | 81 | 999.3 |
| 20260506032503 | -1 | 255 | 0.0 | 1.6 | 0.00 | 0.00 | 0.00 | 81 | 999.3 |
| 20260506032004 | -1 | 236 | 1.6 | 9.7 | 0.00 | 0.00 | 0.00 | 81 | 999.3 |
| 20260506031503 | -1 | 244 | 0.0 | 0.0 | 0.00 | 0.00 | 0.00 | 82 | 999.2 |
| 20260506031003 | -1 | 255 | 0.0 | 0.0 | 0.00 | 0.00 | 0.00 | 82 | 999.1 |
| 20260506030503 | -1 | 273 | 1.6 | 8.0 | 0.00 | 0.00 | 0.00 | 82 | 999.2 |
| 20260506030004 | -1 | 244 | 1.6 | 8.0 | 0.00 | 0.00 | 0.00 | 82 | 999.1 |
| 20260506025004 | -1 | 221 | 0.0 | 0.0 | 0.00 | 0.00 | 0.00 | 82 | 999.1 |
| 20260506024504 | -1 | 261 | 0.0 | 0.0 | 0.00 | 0.00 | 0.00 | 82 | 999.1 |
| 20260506024003 | -1 | 271 | 0.0 | 0.0 | 0.00 | 0.00 | 0.00 | 82 | 999.1 |
| 20260506023503 | -1 | 251 | 0.0 | 0.0 | 0.00 | 0.00 | 0.00 | 81 | 999.1 |
| 20260506022504 | -1 | 228 | 0.0 | 0.0 | 0.00 | 0.00 | 0.00 | 81 | 999.0 |
| 20260506022003 | -1 | 248 | 0.0 | 0.0 | 0.00 | 0.00 | 0.00 | 81 | 999.0 |
| 20260506021004 | -1 | 238 | 0.0 | 0.0 | 0.00 | 0.00 | 0.00 | 81 | 998.9 |
| 20260506020004 | -1 | 243 | 0.0 | 0.0 | 0.00 | 0.00 | 0.00 | 81 | 998.9 |
| 20260506015004 | -1 | 274 | 0.0 | 0.0 | 0.00 | 0.00 | 0.00 | 81 | 998.9 |
| 20260506014503 | -1 | 219 | 0.0 | 0.0 | 0.00 | 0.00 | 0.00 | 81 | 998.9 |
| 20260506014003 | -1 | 212 | 0.0 | 0.0 | 0.00 | 0.00 | 0.00 | 81 | 998.8 |
| 20260506013503 | -1 | 272 | 0.0 | 0.0 | 0.00 | 0.00 | 0.00 | 80 | 998.8 |
| 20260506013003 | -1 | 268 | 0.0 | 0.0 | 0.00 | 0.00 | 0.00 | 80 | 998.8 |
| 20260506012504 | -1 | 268 | 0.0 | 0.0 | 0.00 | 0.00 | 0.00 | 81 | 998.7 |
| 20260506012003 | -1 | 268 | 0.0 | 0.0 | 0.00 | 0.00 | 0.00 | 81 | 998.7 |
| 20260506011503 | -1 | 268 | 0.0 | 0.0 | 0.00 | 0.00 | 0.00 | 80 | 998.7 |
| 20260506011003 | -1 | 268 | 0.0 | 0.0 | 0.00 | 0.00 | 0.00 | 80 | 998.7 |
| 20260506010003 | -1 | 231 | 0.0 | 0.0 | 0.00 | 0.00 | 0.00 | 80 | 998.7 |
| 20260506005503 | -1 | 246 | 0.0 | 0.0 | 0.00 | 0.00 | 0.00 | 80 | 998.6 |
| 20260506005003 | -1 | 246 | 0.0 | 0.0 | 0.00 | 0.00 | 0.00 | 79 | 998.6 |
| 20260506004503 | -1 | 246 | 0.0 | 0.0 | 0.00 | 0.00 | 0.00 | 79 | 998.6 |
| 20260506003503 | -1 | 237 | 0.0 | 0.0 | 0.00 | 0.00 | 0.00 | 79 | 998.6 |
| 20260506003003 | -1 | 237 | 0.0 | 0.0 | 0.00 | 0.00 | 0.00 | 79 | 998.6 |
| 20260506002504 | -1 | 263 | 0.0 | 0.0 | 0.00 | 0.00 | 0.00 | 79 | 998.5 |
| 20260506002003 | -1 | 263 | 0.0 | 0.0 | 0.00 | 0.00 | 0.00 | 79 | 998.5 |
| 20260506001504 | -1 | 262 | 0.0 | 0.0 | 0.00 | 0.00 | 0.00 | 79 | 998.5 |
| 20260506001003 | -1 | 263 | 0.0 | 0.0 | 0.00 | 0.00 | 0.00 | 80 | 998.5 |
| 20260506000503 | -1 | 263 | 0.0 | 0.0 | 0.00 | 0.00 | 0.00 | 80 | 998.5 |
| 20260506000004 | -1 | 260 | 0.0 | 0.0 | 0.00 | 0.00 | 0.00 | 81 | 998.5 |
| 20260505235504 | -2 | 244 | 0.0 | 0.0 | 0.00 | 0.00 | 0.00 | 81 | 998.5 |
| 20260505234504 | -2 | 232 | 0.0 | 0.0 | 0.00 | 0.00 | 0.00 | 79 | 998.5 |
| 20260505233507 | -1 | 232 | 0.0 | 0.0 | 0.00 | 0.00 | 0.00 | 78 | 998.6 |
| 20260505233005 | -1 | 232 | 0.0 | 0.0 | 0.00 | 0.00 | 0.00 | 79 | 998.6 |
| 20260505232504 | -1 | 232 | 0.0 | 0.0 | 0.00 | 0.00 | 0.00 | 78 | 998.6 |
| 20260505232004 | -1 | 232 | 0.0 | 0.0 | 0.00 | 0.00 | 0.00 | 78 | 998.6 |
| 20260505231503 | -1 | 260 | 0.0 | 0.0 | 0.00 | 0.00 | 0.00 | 77 | 998.6 |
| 20260505231003 | -1 | 260 | 0.0 | 0.0 | 0.00 | 0.00 | 0.00 | 76 | 998.6 |
| 20260505230503 | -1 | 260 | 0.0 | 0.0 | 0.00 | 0.00 | 0.00 | 75 | 998.6 |
| 20260505225504 | -1 | 259 | 0.0 | 0.0 | 0.00 | 0.00 | 0.00 | 73 | 998.5 |
| 20260505225004 | 0 | 259 | 0.0 | 0.0 | 0.00 | 0.00 | 0.00 | 73 | 998.6 |
| 20260505224504 | 0 | 259 | 0.0 | 0.0 | 0.00 | 0.00 | 0.00 | 73 | 998.6 |
| 20260505223503 | 0 | 252 | 0.0 | 0.0 | 0.00 | 0.00 | 0.00 | 73 | 998.6 |
| 20260505223003 | 0 | 250 | 0.0 | 0.0 | 0.00 | 0.00 | 0.00 | 73 | 998.6 |
| 20260505222503 | 0 | 273 | 0.0 | 0.0 | 0.00 | 0.00 | 0.00 | 73 | 998.6 |
| 20260505222003 | 0 | 272 | 0.0 | 0.0 | 0.00 | 0.00 | 0.00 | 73 | 998.5 |
| 20260505221003 | 0 | 277 | 4.8 | 12.9 | 0.00 | 0.00 | 0.00 | 73 | 998.5 |
| 20260505220504 | 0 | 258 | 0.0 | 0.0 | 0.00 | 0.00 | 0.00 | 73 | 998.4 |
| 20260505220003 | 0 | 275 | 0.0 | 0.0 | 0.00 | 0.00 | 0.00 | 72 | 998.4 |
| 20260505215503 | 0 | 279 | 0.0 | 0.0 | 0.00 | 0.00 | 0.00 | 71 | 998.4 |
| 20260505215003 | 0 | 279 | 0.0 | 0.0 | 0.00 | 0.00 | 0.00 | 71 | 998.4 |
| 20260505214503 | 0 | 279 | 0.0 | 0.0 | 0.00 | 0.00 | 0.00 | 70 | 998.4 |
| 20260505214003 | 0 | 279 | 0.0 | 0.0 | 0.00 | 0.00 | 0.00 | 70 | 998.4 |
| 20260505213503 | 0 | 279 | 0.0 | 11.3 | 0.00 | 0.00 | 0.00 | 70 | 998.3 |
| 20260505212503 | 0 | 277 | 8.0 | 14.5 | 0.00 | 0.00 | 0.00 | 70 | 998.3 |
| 20260505212003 | 0 | 295 | 3.2 | 11.3 | 0.00 | 0.00 | 0.00 | 70 | 998.2 |
| 20260505211504 | 0 | 284 | 4.8 | 12.9 | 0.00 | 0.00 | 0.00 | 69 | 998.2 |
| 20260505211003 | 0 | 276 | 3.2 | 9.7 | 0.00 | 0.00 | 0.00 | 69 | 998.2 |
| 20260505210503 | 0 | 250 | 1.6 | 4.8 | 0.00 | 0.00 | 0.00 | 68 | 998.1 |
| 20260505210003 | 0 | 296 | 0.0 | 0.0 | 0.00 | 0.00 | 0.00 | 68 | 998.1 |
| 20260505205503 | 0 | 239 | 0.0 | 0.0 | 0.00 | 0.00 | 0.00 | 68 | 998.1 |
| 20260505205003 | 0 | 274 | 0.0 | 0.0 | 0.00 | 0.00 | 0.00 | 68 | 998.0 |
| 20260505204003 | 0 | 266 | 0.0 | 0.0 | 0.00 | 0.00 | 0.00 | 68 | 998.0 |
| 20260505203503 | 0 | 248 | 0.0 | 0.0 | 0.00 | 0.00 | 0.00 | 68 | 998.0 |
| 20260505203004 | 0 | 255 | 0.0 | 0.0 | 0.00 | 0.00 | 0.00 | 69 | 998.0 |
| 20260505202503 | 0 | 276 | 0.0 | 0.0 | 0.00 | 0.00 | 0.00 | 69 | 998.0 |
| 20260505201503 | 0 | 242 | 0.0 | 0.0 | 0.00 | 0.00 | 0.00 | 70 | 997.9 |
| 20260505201003 | 0 | 242 | 0.0 | 0.0 | 0.00 | 0.00 | 0.00 | 69 | 997.8 |
| 20260505200503 | 0 | 242 | 0.0 | 0.0 | 0.00 | 0.00 | 0.00 | 68 | 997.8 |
| 20260505195504 | 1 | 242 | 0.0 | 0.0 | 0.00 | 0.00 | 0.00 | 66 | 997.8 |
| 20260505195003 | 1 | 242 | 0.0 | 0.0 | 0.00 | 0.00 | 0.00 | 66 | 997.8 |
| 20260505194503 | 1 | 241 | 0.0 | 0.0 | 0.00 | 0.00 | 0.00 | 66 | 997.8 |
| 20260505194004 | 1 | 240 | 0.0 | 0.0 | 0.00 | 0.00 | 0.00 | 66 | 997.7 |
| 20260505193503 | 1 | 244 | 0.0 | 0.0 | 0.00 | 0.00 | 0.00 | 66 | 997.6 |
| 20260505193003 | 1 | 263 | 0.0 | 0.0 | 0.00 | 0.00 | 0.00 | 65 | 997.6 |
| 20260505192503 | 1 | 270 | 0.0 | 0.0 | 0.00 | 0.00 | 0.00 | 63 | 997.6 |
| 20260505192003 | 1 | 270 | 0.0 | 0.0 | 0.00 | 0.00 | 0.00 | 61 | 997.6 |
| 20260505191003 | 2 | 270 | 0.0 | 0.0 | 0.00 | 0.00 | 0.00 | 60 | 997.5 |
| 20260505190503 | 2 | 289 | 0.0 | 0.0 | 0.00 | 0.00 | 0.00 | 59 | 997.5 |
| 20260505190004 | 2 | 282 | 0.0 | 0.0 | 0.00 | 0.00 | 0.00 | 59 | 997.4 |
| 20260505185503 | 2 | 279 | 0.0 | 0.0 | 0.00 | 0.00 | 0.00 | 58 | 997.4 |
| 20260505185004 | 2 | 269 | 0.0 | 8.0 | 0.00 | 0.00 | 0.00 | 58 | 997.3 |
| 20260505184504 | 2 | 262 | 6.4 | 16.1 | 0.00 | 0.00 | 0.00 | 57 | 997.3 |
| 20260505184003 | 2 | 289 | 9.7 | 19.3 | 0.00 | 0.00 | 0.00 | 57 | 997.3 |
| 20260505183504 | 2 | 273 | 11.3 | 19.3 | 0.00 | 0.00 | 0.00 | 57 | 997.2 |
| 20260505183004 | 3 | 285 | 1.6 | 19.3 | 0.00 | 0.00 | 0.00 | 56 | 997.2 |
| 20260505182504 | 3 | 277 | 1.6 | 16.1 | 0.00 | 0.00 | 0.00 | 56 | 997.2 |
| 20260505182003 | 3 | 307 | 8.0 | 16.1 | 0.00 | 0.00 | 0.00 | 56 | 997.2 |
| 20260505181003 | 3 | 290 | 4.8 | 19.3 | 0.00 | 0.00 | 0.00 | 57 | 997.1 |
| 20260505180503 | 3 | 303 | 8.0 | 20.9 | 0.00 | 0.00 | 0.00 | 56 | 997.1 |
| 20260505180004 | 3 | 272 | 8.0 | 11.3 | 0.00 | 0.00 | 0.00 | 57 | 997.0 |
| 20260505175504 | 3 | 312 | 9.7 | 27.4 | 0.00 | 0.00 | 0.00 | 59 | 997.1 |
| 20260505175004 | 3 | 290 | 8.0 | 16.1 | 0.00 | 0.00 | 0.00 | 58 | 997.1 |
| 20260505174503 | 3 | 288 | 4.8 | 19.3 | 0.00 | 0.00 | 0.00 | 57 | 997.1 |
| 20260505174003 | 3 | 273 | 9.7 | 19.3 | 0.00 | 0.00 | 0.00 | 56 | 997.0 |
| 20260505173503 | 3 | 279 | 8.0 | 19.3 | 0.00 | 0.00 | 0.00 | 54 | 996.9 |
| 20260505173003 | 3 | 270 | 14.5 | 24.1 | 0.00 | 0.00 | 0.00 | 52 | 996.8 |
| 20260505172503 | 4 | 276 | 8.0 | 19.3 | 0.00 | 0.00 | 0.00 | 51 | 996.8 |
| 20260505172003 | 4 | 276 | 11.3 | 25.7 | 0.00 | 0.00 | 0.00 | 50 | 996.7 |
| 20260505171504 | 4 | 268 | 9.7 | 19.3 | 0.00 | 0.00 | 0.00 | 49 | 996.7 |
| 20260505171003 | 4 | 250 | 4.8 | 16.1 | 0.00 | 0.00 | 0.00 | 49 | 996.7 |
| 20260505170506 | 4 | 289 | 6.4 | 16.1 | 0.00 | 0.00 | 0.00 | 48 | 996.6 |
| 20260505170003 | 4 | 264 | 8.0 | 19.3 | 0.00 | 0.00 | 0.00 | 48 | 996.6 |
| 20260505165503 | 4 | 299 | 9.7 | 22.5 | 0.00 | 0.00 | 0.00 | 47 | 996.7 |
| 20260505164504 | 5 | 308 | 8.0 | 11.3 | 0.00 | 0.00 | 0.00 | 45 | 996.5 |
| 20260505164004 | 5 | 309 | 8.0 | 14.5 | 0.00 | 0.00 | 0.00 | 43 | 996.4 |
| 20260505163003 | 5 | 274 | 0.0 | 8.0 | 0.00 | 0.00 | 0.00 | 44 | 996.3 |
| 20260505162503 | 5 | 289 | 8.0 | 12.9 | 0.00 | 0.00 | 0.00 | 45 | 996.4 |
| 20260505162003 | 5 | 292 | 0.0 | 0.0 | 0.00 | 0.00 | 0.00 | 45 | 996.4 |
| 20260505161504 | 5 | 264 | 4.8 | 19.3 | 0.00 | 0.00 | 0.00 | 45 | 996.4 |
| 20260505161003 | 5 | 317 | 11.3 | 24.1 | 0.00 | 0.00 | 0.00 | 44 | 996.5 |
| 20260505153003 | 5 | 308 | 9.7 | 16.1 | 0.00 | 0.00 | 0.00 | 41 | 996.2 |
| 20260505152504 | 5 | 299 | 11.3 | 24.1 | 0.00 | 0.00 | 0.00 | 40 | 996.1 |
| 20260505152003 | 5 | 299 | 3.2 | 12.9 | 0.00 | 0.00 | 0.00 | 41 | 996.1 |
| 20260505151503 | 5 | 306 | 16.1 | 29.0 | 0.00 | 0.00 | 0.00 | 41 | 996.1 |
| 20260505151003 | 5 | 290 | 9.7 | 19.3 | 0.00 | 0.00 | 0.00 | 42 | 996.1 |
| 20260505140503 | 5 | 280 | 4.8 | 12.9 | 0.00 | 0.00 | 0.00 | 48 | 995.9 |
| 20260505125004 | 7 | 302 | 19.3 | 32.2 | 0.00 | 0.00 | 0.00 | 35 | 994.9 |
| 20260505124503 | 7 | 253 | 12.9 | 22.5 | 0.00 | 0.00 | 0.00 | 36 | 994.8 |
| 20260505124004 | 7 | 297 | 12.9 | 29.0 | 0.00 | 0.00 | 0.00 | 36 | 994.8 |
| 20260505123503 | 7 | 308 | 9.7 | 25.7 | 0.00 | 0.00 | 0.00 | 35 | 994.9 |
| 20260505123003 | 7 | 301 | 11.3 | 19.3 | 0.00 | 0.00 | 0.00 | 36 | 994.8 |
| 20260505122003 | 6 | 310 | 9.7 | 20.9 | 0.00 | 0.00 | 0.00 | 38 | 994.8 |
| 20260505121503 | 7 | 301 | 16.1 | 25.7 | 0.00 | 0.00 | 0.00 | 37 | 994.8 |
| 20260505121003 | 7 | 264 | 9.7 | 24.1 | 0.00 | 0.00 | 0.00 | 38 | 994.7 |
| 20260505120503 | 6 | 292 | 11.3 | 24.1 | 0.00 | 0.00 | 0.00 | 38 | 994.6 |
| 20260505120003 | 7 | 284 | 14.5 | 22.5 | 0.00 | 0.00 | 0.00 | 36 | 994.7 |
| 20260505115503 | 7 | 326 | 11.3 | 19.3 | 0.00 | 0.00 | 0.00 | 37 | 994.6 |
| 20260505115003 | 7 | 271 | 11.3 | 32.2 | 0.00 | 0.00 | 0.00 | 36 | 994.6 |
| 20260505114503 | 7 | 303 | 19.3 | 33.8 | 0.00 | 0.00 | 0.00 | 37 | 994.6 |
| 20260505114003 | 7 | 326 | 11.3 | 24.1 | 0.00 | 0.00 | 0.00 | 35 | 994.6 |
| 20260505113503 | 7 | 311 | 9.7 | 22.5 | 0.00 | 0.00 | 0.00 | 37 | 994.5 |
| 20260505113003 | 6 | 311 | 14.5 | 27.4 | 0.00 | 0.00 | 0.00 | 37 | 994.5 |
| 20260505112503 | 6 | 297 | 9.7 | 19.3 | 0.00 | 0.00 | 0.00 | 39 | 994.5 |
| 20260505112004 | 6 | 332 | 16.1 | 27.4 | 0.00 | 0.00 | 0.00 | 40 | 994.5 |
| 20260505111503 | 6 | 318 | 16.1 | 25.7 | 0.00 | 0.00 | 0.00 | 41 | 994.4 |
| 20260505110504 | 7 | 312 | 14.5 | 25.7 | 0.00 | 0.00 | 0.00 | 37 | 994.4 |
| 20260505102003 | 6 | 303 | 12.9 | 22.5 | 0.00 | 0.10 | 0.00 | 41 | 994.1 |
| 20260505101504 | 6 | 298 | 16.1 | 29.0 | 0.00 | 0.10 | 0.00 | 39 | 994.1 |
| 20260505101003 | 6 | 292 | 11.3 | 25.7 | 0.00 | 0.10 | 0.00 | 39 | 994.0 |
| 20260505100503 | 6 | 314 | 11.3 | 24.1 | 0.00 | 0.10 | 0.00 | 41 | 993.9 |
| 20260505100004 | 6 | 304 | 14.5 | 20.9 | 0.00 | 0.10 | 0.00 | 40 | 993.8 |
| 20260505095503 | 6 | 283 | 9.7 | 22.5 | 0.00 | 0.10 | 0.00 | 42 | 993.8 |
| 20260505094504 | 6 | 314 | 14.5 | 25.7 | 0.00 | 0.10 | 0.00 | 42 | 993.7 |
| 20260505094003 | 6 | 308 | 11.3 | 20.9 | 0.00 | 0.10 | 0.00 | 43 | 993.8 |
| 20260505093504 | 6 | 314 | 16.1 | 22.5 | 0.00 | 0.10 | 0.00 | 42 | 993.8 |
| 20260505093004 | 6 | 320 | 8.0 | 19.3 | 0.00 | 0.10 | 0.00 | 44 | 993.8 |